Location: Toronto
(43.6672°N, 79.4170°W)
Time: 07:31:31
(UTC-04:00)

ISS - All Passes

Search period start: 22 May 2015 00:00
Search period end: 01 June 2015 00:00
Orbit: 399 x 404 km, 51.6° (Epoch: 22 May)

Date Brightness Start Highest point End Pass type
(mag) Time Alt. Az. Time Alt. Az. Time Alt. Az.
22 May - 02:01:30 10° SSW 02:04:30 36° SE 02:07:33 10° ENE visible
22 May - 03:37:51 10° W 03:40:55 37° NNW 03:44:01 10° NE visible
22 May - 05:15:29 10° NW 05:17:59 20° N 05:20:29 10° NE daylight
22 May - 06:52:12 10° NW 06:55:06 29° NNE 06:58:02 10° E daylight
22 May - 08:28:28 10° WNW 08:31:43 61° SW 08:34:57 10° SE daylight
23 May - 01:09:04 10° S 01:11:28 19° SE 01:13:55 10° E visible
23 May - 02:44:26 10° WSW 02:47:38 58° NNW 02:50:53 10° NE visible
23 May - 04:21:56 10° WNW 04:24:32 21° N 04:27:09 10° NE visible
23 May - 05:59:02 10° NW 06:01:43 23° NNE 06:04:25 10° ENE daylight
23 May - 07:35:16 10° NW 07:38:32 74° NNE 07:41:48 10° ESE daylight
23 May - 09:12:37 10° W 09:14:37 15° SW 09:16:33 10° S daylight
24 May - 00:17:57 10° SE 00:18:27 10° SE 00:19:05 10° ESE night (unlit)
24 May - 01:51:09 10° SW 01:54:24 80° SSE 01:57:41 10° ENE visible
24 May - 03:28:18 10° WNW 03:31:06 25° NNW 03:33:55 10° NE visible
24 May - 05:05:44 10° NW 05:08:16 20° N 05:10:48 10° NE visible
24 May - 06:42:05 10° NW 06:45:16 44° NNE 06:48:24 10° E daylight
24 May - 08:18:43 10° WNW 08:21:34 27° SW 08:24:23 10° SSE daylight
25 May - 00:58:08 10° SSW 01:01:13 42° SE 01:04:19 10° ENE visible
25 May - 02:34:40 10° W 02:37:42 34° NNW 02:40:43 10° NE visible
25 May - 04:12:17 10° NW 04:14:46 20° N 04:17:15 10° NE visible
25 May - 05:48:55 10° NW 05:51:52 31° NNE 05:54:50 10° E daylight
25 May - 07:25:13 10° WNW 07:28:25 52° SW 07:31:36 10° SE daylight
26 May - 00:05:29 10° S 00:08:04 22° SE 00:10:43 10° E night (unlit)
26 May - 01:41:08 10° WSW 01:44:18 51° NNW 01:47:30 10° NE visible
26 May - 03:18:40 10° WNW 03:21:15 21° N 03:23:49 10° NE visible
26 May - 04:55:40 10° NW 04:58:24 24° NNE 05:01:09 10° ENE visible
26 May - 06:31:53 10° WNW 06:35:11 85° NE 06:38:26 10° ESE daylight
26 May - 08:09:34 10° WSW 08:11:11 13° SW 08:12:43 10° SSW daylight
26 May - 23:13:39 10° SSE 23:14:57 12° SE 23:16:23 10° ESE night (unlit)
27 May - 00:47:43 10° WSW 00:50:58 88° NW 00:54:14 10° ENE visible
27 May - 02:24:58 10° WNW 02:27:43 24° NNW 02:30:28 10° NE visible
27 May - 04:02:19 10° NW 04:04:52 21° N 04:07:26 10° ENE visible
27 May - 05:38:37 10° NW 05:41:49 49° NNE 05:45:00 10° ESE daylight
27 May - 07:15:22 10° W 07:18:04 24° SW 07:20:44 10° SSE daylight
27 May - 23:54:32 10° SW 23:57:40 49° SE 00:00:50 10° ENE visible
28 May - 01:31:14 10° W 01:34:12 31° NNW 01:37:10 10° NE visible
28 May - 03:08:49 10° NW 03:11:17 19° N 03:13:46 10° NE visible
28 May - 04:45:21 10° NW 04:48:22 33° NNE 04:51:23 10° E visible
28 May - 06:21:43 10° WNW 06:24:51 44° SW 06:27:58 10° SE daylight
28 May - 23:01:41 10° SSW 23:04:26 26° SE 23:07:13 10° ENE night (unlit)
29 May - 00:37:34 10° W 00:40:43 46° NNW 00:43:52 10° NE visible
29 May - 02:15:09 10° WNW 02:17:41 20° N 02:20:12 10° NE visible
29 May - 03:52:03 10° NW 03:54:49 25° NNE 03:57:37 10° ENE visible
29 May - 05:28:15 10° WNW 05:31:32 84° SSW 05:34:48 10° SE daylight
29 May - 07:06:28 10° WSW 07:07:30 11° SW 07:08:25 10° SSW daylight
29 May - 22:09:28 10° SSE 22:11:13 14° SE 22:13:04 10° E night (unlit)
29 May - 23:44:02 10° WSW 23:47:16 78° NNW 23:50:32 10° NE visible
30 May - 01:21:22 10° WNW 01:24:03 23° NNW 01:26:45 10° NE visible
30 May - 02:58:38 10° NW 03:01:13 21° N 03:03:48 10° ENE visible
30 May - 04:34:54 10° NW 04:38:07 55° NNE 04:41:20 10° ESE visible
30 May - 06:11:46 10° W 06:14:18 21° SW 06:16:48 10° S daylight
30 May - 22:50:42 10° SW 22:53:52 57° SE 22:57:05 10° ENE visible
31 May - 00:27:32 10° W 00:30:26 29° NNW 00:33:21 10° NE visible
31 May - 02:05:04 10° NW 02:07:33 20° N 02:10:02 10° NE visible
31 May - 03:41:33 10° NW 03:44:35 36° NNE 03:47:39 10° E visible
31 May - 05:17:57 10° WNW 05:21:01 38° SW 05:24:04 10° SSE daylight
31 May - 21:57:40 10° SSW 22:00:32 30° SE 22:03:26 10° ENE visible
31 May - 23:33:45 10° W 23:36:51 41° NNW 23:39:58 10° NE visible
